Lid_Strength_Index
-1 -0 -0 -0 -1 -0 -0 0 0 -0 -1 -1 -0 -1 -1 -1 -1 0 4 1 0 -1 1 2 3 4 4 5 4 6 11 13 12 12 11 11 12 10 8 8 6 5 4 4 2
-1 -1 -1 -0 -1 -1 -1 -0 -0 -0 -1 -1 -1 -1 -1 -1 1 3 -1 -2 -2 -2 2 3 5 5 7 6 6 8 11 11 9 10 10 10 11 11 11 10 8 5 4 3 3
-1 -1 -1 -1 -1 -1 -1 -1 -1 -1 -1 -1 -1 -1 -1 -1 4 4 -2 -2 -2 -1 2 3 4 6 7 6 7 8 11 9 9 8 8 9 10 11 11 12 9 7 5 4 3
-1 -1 -1 -1 -1 -1 -1 -1 -1 -1 -1 -1 -1 -1 -1 1 11 3 -2 -2 -2 0 2 3 4 7 9 9 7 10 8 8 7 7 8 9 9 11 11 10 9 9 6 4 4
-1 -1 -1 -1 -1 -1 -2 -1 -1 -2 -2 -1 -1 -1 1 5 6 2 -1 -1 -0 1 3 4 6 7 10 8 8 9 8 7 7 8 8 8 9 9 11 9 9 10 5 4 4
-1 -1 -1 -1 -1 -2 -2 -2 -1 -2 -2 -1 -1 -1 3 8 1 0 0 0 2 2 3 4 5 5 7 8 9 8 8 8 7 8 8 9 9 10 10 10 11 9 7 5 4
-1 -1 -1 -1 -1 -1 -2 -2 -2 -2 -2 -1 -1 1 4 6 1 1 0 2 2 2 4 3 3 5 6 9 7 7 10 9 8 8 8 8 10 11 8 9 11 11 9 5 5
-1 -1 -1 -1 -1 -1 -1 -2 -2 -2 -2 -1 -1 3 7 3 1 1 2 2 2 2 2 2 2 5 6 6 8 10 10 14 9 8 8 9 13 9 8 11 12 11 11 7 5
-1 -1 -1 -1 -1 -1 -1 -1 -1 -1 -1 -1 2 4 7 1 4 2 1 3 3 3 2 1 3 7 7 10 12 12 15 14 12 8 9 10 12 9 7 9 10 10 12 11 7
-1 -1 -1 -1 -1 -1 -1 -1 -1 -1 0 0 2 6 6 6 3 2 1 2 4 4 5 5 7 10 10 12 17 14 15 13 14 10 10 11 11 9 8 9 10 11 11 12 10
-1 -1 -1 -1 -1 -1 -1 1 5 5 3 7 6 7 6 3 2 3 2 3 4 6 10 8 11 13 11 10 11 12 12 13 12 9 11 11 11 10 8 8 9 9 10 10 11
-1 -1 -1 -1 -1 -1 0 6 6 6 8 4 4 5 4 3 7 4 2 7 8 11 9 11 13 10 9 9 11 12 13 14 11 9 11 12 12 9 9 8 8 8 8 9 10
-1 -1 -1 -1 -1 0 3 5 4 4 10 7 5 5 5 4 7 7 4 6 9 11 11 12 11 8 10 11 12 12 13 13 13 11 11 12 13 11 9 8 8 8 7 7 8
-1 -1 -1 -1 2 2 4 4 3 6 13 11 8 6 5 5 9 4 3 6 9 11 10 11 8 10 11 12 11 15 10 11 12 14 17 12 18 12 10 10 9 9 8 8 7
-1 -1 -1 -1 2 4 2 3 5 6 20 12 9 3 5 8 7 7 3 6 10 11 10 13 11 12 13 12 10 13 9 11 12 14 15 14 17 14 10 11 10 9 8 7 7
-1 -1 -1 1 1 1 2 4 5 15 21 15 8 9 9 8 8 7 7 5 6 9 11 10 8 9 10 9 9 9 11 12 12 14 19 15 15 14 12 11 10 9 8 8 7
-1 -1 -0 0 4 1 2 6 14 19 15 14 12 9 10 11 10 9 10 11 13 15 15 12 11 10 8 12 9 10 14 19 20 20 20 14 16 14 11 10 11 10 9 8 8
-1 -1 -0 0 -0 1 5 12 18 18 19 12 11 10 12 11 10 10 11 13 10 12 14 16 17 11 9 11 13 13 13 18 22 22 19 14 18 15 10 8 8 9 9 9 10
-1 1 2 1 0 1 8 15 16 15 15 12 11 12 12 11 11 11 12 12 11 10 14 16 16 10 9 9 9 13 15 12 17 18 19 16 14 12 11 10 10 10 10 11 10
2 3 3 0 1 3 10 13 13 12 11 10 15 13 15 12 12 12 12 10 11 9 8 12 16 12 10 9 9 12 10 16 16 21 22 18 17 15 12 10 9 11 11 11 11
3 7 3 0 2 7 13 13 14 13 10 13 16 15 14 13 12 13 13 11 8 10 8 10 13 14 11 13 13 13 14 14 14 16 20 21 17 13 11 11 11 11 12 13 13
7 10 3 1 10 11 12 11 12 12 11 11 12 13 14 13 12 12 13 11 8 8 12 10 13 16 14 10 9 10 13 13 18 19 17 18 16 12 12 11 12 12 12 12 13
8 8 3 3 13 12 11 12 11 11 11 11 12 11 11 12 14 12 11 8 8 9 11 10 14 18 17 13 11 13 12 11 12 13 17 19 16 12 12 12 12 12 12 12 13
8 11 9 7 10 11 12 13 13 11 11 11 12 10 11 12 12 12 12 10 8 8 8 8 13 15 18 16 13 15 13 12 13 17 16 16 14 11 9 9 9 8 9 11 12
8 9 9 13 11 10 10 12 13 13 11 11 11 11 11 13 13 13 12 11 10 8 9 10 15 13 13 13 12 13 13 13 14 14 16 14 14 11 9 9 8 8 9 11 11
9 9 9 10 9 11 10 12 12 13 12 12 12 11 11 12 12 13 11 11 12 10 11 10 14 13 15 13 13 14 13 13 12 13 13 13 13 9 8 7 8 7 7 8 11
6 6 10 9 10 11 12 12 11 11 12 11 11 12 12 11 10 9 9 9 10 11 12 12 13 15 17 13 14 17 14 13 12 11 11 15 11 8 9 8 8 8 7 8 7